EHI
1 1 1 1 1 0 0 0 0 0 0 0 0 0 0 0 0 1 2 3 3 3 3 3 3 3 3 4 5 6 6 6 6 6 6 6 5 4 3 3 3 3 4 4 4 3 3 3 3
1 1 1 1 0 0 0 0 0 0 0 0 0 0 0 0 0 1 2 3 3 4 3 3 3 3 3 3 4 5 6 5 5 5 6 6 5 4 3 3 3 3 4 5 4 3 2 3 3
2 2 1 0 0 0 0 0 0 0 0 0 0 0 0 0 1 1 3 3 4 5 4 4 4 4 3 3 3 4 6 5 4 4 5 6 6 4 3 2 2 3 4 5 4 2 1 1 2
2 2 1 0 0 0 0 0 0 0 0 0 0 0 0 1 2 3 3 4 5 5 5 5 6 5 4 3 3 4 5 5 4 3 4 5 4 4 3 2 1 1 3 3 2 0 0 0 1
1 1 0 0 0 0 0 0 0 0 0 0 0 0 1 2 3 3 3 3 4 5 5 5 6 6 5 4 3 3 4 4 3 3 3 4 3 3 3 2 1 0 1 1 0 0 0 0 0
0 0 0 0 0 0 0 0 0 0 0 0 0 0 1 2 3 3 3 3 3 4 4 5 6 6 6 5 4 3 3 3 3 3 3 3 3 3 3 3 2 1 0 0 1 1 0 0 0
0 0 0 0 0 0 0 0 1 1 0 0 0 0 1 1 2 3 3 4 4 3 3 4 6 6 6 6 4 3 3 3 3 3 3 3 3 3 3 4 4 3 1 1 1 1 0 0 1
0 0 0 0 0 0 0 0 1 1 0 0 0 0 0 0 1 3 4 5 5 4 4 4 5 6 6 5 5 4 4 3 3 3 3 3 2 2 3 4 5 4 2 1 1 1 0 0 1
0 0 0 0 0 0 0 0 1 1 0 0 0 0 0 0 1 3 5 6 6 6 5 4 4 4 4 4 4 4 4 3 2 2 2 1 1 1 1 3 5 4 2 0 0 0 0 0 1
0 0 0 0 0 0 0 0 0 0 0 0 1 1 0 1 2 3 4 5 6 6 5 4 3 2 2 3 3 3 2 1 1 1 1 0 0 0 0 1 2 2 1 0 0 1 0 0 0
0 0 1 1 1 0 0 0 0 0 0 0 1 2 2 2 3 3 3 4 4 4 5 4 2 1 1 1 2 1 1 0 0 0 0 0 0 0 0 0 1 1 1 0 0 0 0 0 0
1 1 2 2 2 1 0 0 0 0 0 1 2 3 4 4 4 4 3 4 3 3 4 3 2 1 0 0 0 0 0 0 0 0 0 0 0 0 0 0 0 0 0 0 0 0 0 0 0
2 3 3 3 2 1 0 0 0 0 0 1 2 2 2 3 3 3 4 4 4 3 3 3 2 0 0 0 0 0 0 0 0 0 0 0 0 0 0 0 0 0 0 0 0 0 0 0 0
3 3 3 3 2 1 0 0 0 0 0 1 1 1 0 1 2 3 3 4 3 3 3 3 2 1 0 0 0 0 0 0 0 0 0 0 0 0 0 0 0 1 0 0 0 0 0 0 0
2 2 2 2 1 0 0 0 0 0 0 0 0 0 0 0 1 1 2 3 3 3 3 3 3 2 1 0 0 0 0 0 0 0 0 0 0 0 0 0 0 0 0 0 0 0 0 0 0
1 1 1 1 0 0 0 0 0 0 0 0 0 0 0 0 0 0 2 3 3 4 4 4 5 4 2 1 0 0 0 0 0 0 0 0 0 0 0 0 0 0 0 0 0 0 0 0 0
0 0 0 0 0 1 1 0 0 0 0 0 0 0 0 0 0 1 2 4 5 5 5 6 5 4 3 1 1 1 1 1 0 0 0 0 0 1 1 1 1 1 1 1 1 1 0 0 0
0 0 0 0 1 2 2 1 1 1 1 0 0 0 1 1 1 1 3 5 6 5 4 5 6 4 3 3 3 2 2 2 1 0 0 0 1 3 3 3 3 2 2 2 1 1 0 0 0
0 0 0 1 2 3 3 3 3 4 2 1 0 0 1 2 1 1 3 5 6 5 4 4 5 4 3 3 3 3 3 2 1 1 1 2 4 5 5 5 4 3 3 3 2 0 0 0 0
1 1 1 1 1 2 3 4 5 5 3 1 0 0 1 2 3 2 3 5 7 7 5 4 4 3 2 2 2 2 2 1 1 1 2 5 6 6 6 4 3 3 3 2 1 0 0 0 0
1 1 1 0 0 1 1 2 3 3 2 0 0 1 2 3 3 4 4 5 7 7 6 4 3 2 1 2 3 4 4 2 1 1 3 4 4 4 4 4 4 4 3 2 1 2 2 1 1
0 0 0 0 0 0 0 1 1 1 1 1 1 2 3 3 4 5 6 6 6 6 4 2 2 2 2 4 6 6 6 4 2 1 1 3 2 2 3 4 5 6 5 3 3 4 4 2 2
0 0 0 0 0 0 0 0 0 0 1 2 3 3 3 3 4 4 6 7 7 4 2 1 2 2 3 5 8 8 7 6 4 2 2 3 4 4 4 5 6 6 6 5 4 4 4 3 3
0 0 0 0 0 0 0 0 0 0 1 2 3 4 4 4 5 4 6 8 9 8 6 5 5 4 4 7 9 10 10 10 9 7 7 7 7 8 8 8 7 6 5 5 4 4 4 4 4
0 0 0 0 0 0 0 0 0 0 0 1 2 4 5 5 6 6 7 10 11 13 14 12 9 7 7 9 11 12 14 14 14 14 12 11 10 11 11 10 9 6 5 4 4 5 5 5 4
0 0 0 0 0 0 0 0 0 0 1 1 3 5 6 7 8 7 8 10 12 17 22 22 17 13 12 13 15 16 18 18 18 17 15 14 13 13 13 12 10 7 4 3 4 5 6 5 5
0 0 0 0 0 0 0 0 0 1 2 4 5 5 6 9 11 9 8 8 12 20 28 31 28 23 19 17 16 16 18 19 18 17 16 15 15 15 14 13 11 7 4 4 4 5 5 5 5
0 0 0 0 0 0 0 0 0 1 2 4 5 5 6 9 11 10 8 8 13 21 30 34 32 28 24 20 16 14 15 16 15 15 15 15 16 16 15 13 10 7 5 3 3 4 4 3 3
0 0 0 0 0 0 0 0 0 1 1 2 4 5 6 7 9 10 9 11 16 22 27 32 32 29 26 23 19 16 15 15 15 15 15 15 16 17 16 14 9 6 3 1 1 2 3 2 2
0 0 0 0 0 0 0 0 0 0 1 2 4 5 5 6 8 10 11 14 18 23 28 32 34 31 28 24 20 18 17 17 18 18 17 16 16 17 16 13 10 5 1 0 0 1 2 3 3
Wind_Speed
4 4 3 2 6 7 4 3 3 3 4 4 7 7 7 5 3 3 1 2 3 3 3 5 9 10 11 11 11 12 13 13 13 13 13 13 13 13 13 14 14 14 15 15 15 15 14 14 15
3 4 2 5 7 5 3 3 4 4 4 4 6 7 7 6 4 5 1 1 3 3 3 5 9 10 10 11 11 12 12 12 12 12 12 12 13 13 14 14 14 15 15 15 15 15 14 14 14
4 2 4 6 5 3 2 2 5 6 4 3 5 6 5 4 3 3 2 3 4 4 3 5 9 10 10 10 11 12 12 12 12 12 12 13 13 14 14 14 14 14 15 15 15 14 14 14 13
3 4 6 7 5 1 3 4 5 5 5 6 5 6 5 3 3 3 5 5 5 4 3 4 9 9 9 9 10 10 11 12 12 12 12 12 13 14 14 14 14 14 14 13 13 13 13 13 12
4 5 7 5 4 3 4 5 3 4 4 5 5 5 4 4 7 7 5 5 4 3 3 4 8 8 9 9 10 10 11 11 11 12 12 12 12 13 13 13 13 13 12 12 12 12 12 12 11
5 6 6 3 3 3 3 4 5 7 6 5 5 4 3 3 6 5 5 4 4 3 3 3 7 8 9 10 10 10 10 11 11 11 11 11 11 11 12 12 11 11 11 11 10 10 10 10 10
5 5 5 4 3 3 4 3 4 5 5 4 4 5 3 3 4 5 4 4 4 4 4 4 4 5 8 9 9 9 10 10 10 10 10 10 10 10 10 9 10 10 10 9 9 9 9 9 9
5 6 4 3 4 3 5 4 4 5 5 4 4 6 4 4 6 6 5 4 4 4 3 3 4 4 4 4 7 8 9 9 9 9 9 9 9 9 9 7 8 8 8 8 8 8 8 8 8
4 6 3 4 6 4 5 5 3 3 6 3 3 4 6 10 9 6 4 3 2 2 2 2 3 3 3 3 4 5 6 7 6 6 7 6 4 4 4 6 7 7 7 6 7 7 7 7 7
5 4 5 4 6 7 6 5 5 5 4 3 6 7 10 10 8 7 5 4 2 1 0 1 1 2 2 2 3 3 3 4 4 3 4 3 3 3 3 5 5 5 5 5 6 6 6 5 3
4 4 2 3 6 8 7 5 4 8 3 5 10 12 11 10 7 6 5 4 3 2 2 1 1 1 1 2 2 2 2 2 3 3 3 3 3 2 3 2 2 3 4 3 4 4 3 2 2
3 1 3 4 6 7 7 6 5 4 4 7 12 13 11 10 8 7 6 4 3 2 2 2 1 1 1 1 2 2 1 1 1 2 2 2 1 2 1 1 1 2 1 2 2 2 2 2 2
3 2 4 6 8 7 7 5 4 3 6 10 12 12 11 9 7 5 5 4 3 3 3 3 3 2 2 1 1 1 1 1 1 1 1 1 1 1 1 1 1 1 1 1 2 2 1 1 1
3 5 6 7 7 5 7 4 4 4 9 11 11 9 9 9 7 5 5 4 4 4 4 3 3 3 2 2 1 1 1 1 1 0 0 1 1 1 1 1 1 1 1 1 1 1 1 1 1
6 8 7 5 5 4 7 3 1 5 9 9 9 8 7 6 6 7 7 6 5 4 4 4 4 3 3 2 2 1 1 1 1 1 0 1 1 1 1 1 1 1 1 1 1 1 1 1 1
5 6 4 0 3 3 6 3 2 7 9 8 7 7 6 5 6 6 6 5 4 3 3 4 4 4 3 2 2 1 1 1 1 1 1 1 2 2 2 1 0 0 1 1 1 1 1 1 1
5 3 2 1 2 4 4 3 4 7 8 7 6 6 6 5 5 5 5 5 4 4 4 3 3 4 4 3 2 1 1 1 1 1 1 1 1 2 2 1 1 1 1 1 0 1 1 1 1
4 4 3 3 3 5 3 2 4 7 8 7 6 6 6 7 7 5 5 4 4 3 3 4 3 3 3 2 1 1 1 0 0 1 1 1 1 2 2 1 1 1 1 1 1 1 1 1 0
6 5 4 3 2 4 4 3 5 7 7 7 6 7 7 7 5 4 4 4 4 3 3 4 4 3 3 2 2 1 1 0 0 1 1 1 1 2 2 1 1 1 1 1 1 1 1 1 1
6 5 3 1 1 4 3 1 3 6 9 8 8 8 8 6 4 4 4 4 5 4 4 4 4 4 3 2 2 2 1 1 1 0 1 1 2 2 2 2 1 1 1 1 1 1 1 0 1
3 6 5 4 3 4 4 2 2 4 4 5 6 6 6 8 8 7 6 6 6 5 6 5 4 4 3 3 2 2 2 1 1 0 1 1 2 2 2 3 2 2 2 2 2 2 2 1 0
4 5 6 7 6 1 3 2 5 4 5 7 8 8 8 8 8 7 7 7 7 7 6 5 5 4 3 4 3 3 2 2 2 2 1 1 1 2 2 3 3 2 2 2 2 2 2 2 1
4 5 6 5 5 4 2 2 7 1 6 10 11 11 10 9 9 9 9 9 8 7 6 5 4 4 4 4 4 4 2 2 1 1 1 1 1 2 2 2 2 2 2 2 2 2 2 2 2
8 8 8 6 6 2 2 3 6 5 8 7 10 11 10 9 9 8 7 6 6 6 5 5 4 4 3 4 4 4 4 3 2 2 2 2 1 1 2 2 2 2 2 2 2 2 2 2 2
7 8 5 5 4 4 2 2 9 7 7 8 9 10 10 9 8 8 7 7 7 7 7 6 5 4 4 4 4 4 4 4 4 3 3 2 2 2 2 2 2 2 2 2 2 2 2 2 2
5 10 10 7 5 3 1 5 8 5 5 4 4 5 6 7 8 9 9 8 8 8 7 7 6 5 4 4 4 4 4 3 3 3 3 3 3 2 2 2 2 2 2 2 2 1 1 1 1
7 4 7 9 4 1 4 6 8 3 3 1 2 4 6 7 7 8 8 8 8 8 8 8 7 5 4 5 4 3 3 4 4 3 3 2 2 2 2 2 2 1 1 1 2 1 1 1 1
7 10 7 8 7 3 3 4 5 5 4 2 2 5 5 5 5 6 6 7 7 7 7 6 6 6 5 4 4 4 3 3 2 2 2 2 2 2 2 1 1 1 1 1 1 1 1 1 1
5 5 6 6 6 8 3 7 6 7 6 5 5 5 5 5 6 6 5 5 6 5 6 6 5 5 4 4 3 3 3 2 2 2 2 2 2 2 2 2 1 1 1 1 2 2 2 2 1
5 8 8 7 4 4 5 7 4 4 4 4 3 2 3 4 4 4 5 5 5 6 6 6 5 5 4 4 4 3 2 2 2 2 2 2 2 1 2 2 2 1 1 2 2 2 2 2 1
Wind_Direction
155 141 130 87 55 52 40 20 63 66 54 45 62 70 73 51 56 106 320 81 69 55 49 75 78 81 82 83 85 94 100 101 100 100 102 101 102 105 106 108 109 110 112 113 114 113 113 113 110
141 143 91 60 72 62 17 18 64 65 118 122 69 63 64 56 57 95 86 79 73 71 64 81 82 81 84 84 88 93 97 99 99 100 102 103 103 103 105 105 106 107 108 110 110 109 108 110 110
153 126 79 65 73 111 119 77 102 97 93 69 64 55 61 69 93 118 138 108 77 68 65 89 88 84 84 85 91 95 97 100 99 100 103 105 105 105 104 104 104 104 105 106 106 105 105 107 109
119 55 56 64 61 73 140 138 127 110 64 51 75 61 56 65 121 125 116 103 83 64 62 88 91 89 88 90 94 97 98 99 97 97 104 105 106 105 105 103 103 102 104 106 106 105 105 108 110
64 72 62 56 45 50 93 125 101 86 71 60 74 81 54 34 95 107 106 98 89 67 50 78 93 90 91 96 96 95 96 96 95 95 99 99 101 103 105 105 104 103 102 103 104 105 107 108 109
62 67 79 82 71 73 100 107 92 87 90 87 79 83 60 96 105 111 101 89 83 76 55 61 91 90 95 102 101 99 97 96 96 95 95 95 97 97 102 104 105 104 102 101 103 105 107 108 106
96 87 109 127 117 116 140 107 99 109 102 100 101 88 91 125 117 109 90 78 70 64 58 43 50 72 96 101 102 102 101 99 96 95 94 93 91 93 99 98 104 103 101 101 104 105 106 108 107
117 97 94 122 136 145 137 110 109 113 106 114 105 122 157 168 126 102 82 71 64 58 51 46 45 48 56 74 97 105 103 101 98 97 95 91 88 85 86 85 99 101 101 98 98 99 102 106 110
90 80 136 177 164 157 139 117 119 91 108 105 93 124 143 134 125 110 96 75 70 80 43 47 54 51 54 63 86 93 100 95 91 87 86 75 60 60 72 79 87 93 96 95 97 98 98 100 106
83 117 197 185 162 149 139 128 139 113 110 89 84 96 119 132 138 138 145 151 159 178 191 64 80 74 57 67 60 51 63 61 61 63 59 53 54 50 57 67 77 83 83 84 90 88 87 85 89
108 154 167 128 137 130 126 125 123 127 154 170 149 142 142 146 151 157 166 168 182 194 192 165 144 98 83 63 66 56 53 49 53 62 57 51 48 47 46 46 50 53 59 56 61 60 59 73 89
105 97 127 133 125 124 133 129 118 147 188 156 148 146 149 156 168 174 175 180 179 178 200 189 173 136 116 97 80 73 65 52 45 50 53 58 54 46 47 46 36 44 48 48 49 61 56 68 91
89 85 84 103 107 111 104 105 113 114 120 126 134 142 154 164 172 178 176 173 177 190 205 200 181 172 159 128 113 105 111 103 65 43 39 97 98 67 55 47 48 44 53 54 41 49 56 63 68
103 90 80 89 95 100 106 85 85 126 127 131 142 154 166 171 170 168 174 186 196 203 206 193 187 185 166 155 150 144 146 138 107 89 276 131 126 101 76 45 42 37 47 66 67 49 45 35 65
92 82 63 70 89 113 103 66 129 149 138 144 154 163 169 171 170 180 187 190 195 196 190 184 187 177 173 175 177 169 167 145 145 183 193 151 141 132 118 69 35 18 57 71 69 45 47 50 64
63 72 81 76 106 126 121 188 186 154 150 160 166 169 174 184 188 192 188 187 185 175 178 188 184 163 170 173 160 163 162 158 163 166 165 173 164 154 144 148 217 16 72 78 71 55 50 42 53
45 111 143 186 149 135 135 194 182 161 161 174 178 177 181 191 202 203 194 188 179 176 173 172 163 159 164 161 157 165 150 153 160 155 173 184 173 163 161 171 194 135 93 81 68 66 90 44 8
175 157 160 185 188 137 148 191 165 168 171 183 187 186 189 201 211 203 196 186 175 173 168 164 156 158 148 135 117 80 74 89 127 169 206 193 171 165 159 162 155 129 114 97 85 70 73 100 18
150 145 154 203 180 138 170 177 182 178 179 189 196 198 201 212 213 196 188 174 165 169 172 172 165 163 145 136 144 141 195 206 241 231 222 206 193 181 163 163 128 125 145 179 152 117 65 48 83
131 127 136 100 108 129 137 168 191 196 199 197 198 202 204 203 197 195 185 177 180 184 187 181 178 171 169 164 156 151 145 164 208 273 272 226 202 197 185 177 176 166 156 146 143 135 115 59 109
155 161 168 153 89 64 94 1 206 228 212 206 209 205 202 203 201 198 193 192 190 195 195 195 191 183 180 165 122 89 66 41 29 309 270 255 213 197 196 193 191 190 176 186 192 169 168 183 168
203 194 153 137 120 123 125 234 271 224 222 217 217 209 208 206 200 198 196 196 197 201 197 194 188 184 181 165 158 158 171 202 214 215 229 267 244 216 206 199 194 195 188 195 204 175 171 166 184
167 111 113 113 113 83 46 142 284 206 234 232 220 215 213 206 198 198 199 198 197 193 189 191 187 190 183 174 174 171 191 209 216 185 227 261 275 249 226 208 198 198 200 203 195 167 174 174 177
119 81 63 53 71 78 235 164 271 227 223 234 217 212 210 204 198 196 196 188 190 183 180 178 182 199 190 182 179 183 195 200 205 221 229 253 268 267 248 217 205 203 202 205 202 188 183 188 185
105 97 57 25 29 249 258 190 249 246 232 227 213 206 203 198 192 187 185 187 190 185 183 180 180 200 196 189 194 200 205 201 210 218 218 231 251 254 247 224 209 211 211 207 198 191 193 186 179
162 137 150 170 193 253 290 230 252 264 262 243 206 187 185 188 190 189 190 191 193 190 184 182 185 195 192 193 205 203 206 210 220 218 213 221 230 244 250 225 217 220 219 209 186 184 203 167 163
131 140 147 122 130 127 266 282 300 299 316 317 171 164 180 187 187 189 187 186 185 187 188 188 185 187 187 193 200 197 203 209 214 215 214 218 225 236 237 229 234 236 212 194 170 157 197 148 156
131 140 106 116 136 187 273 266 253 271 273 281 206 194 197 185 183 183 180 178 180 182 178 175 179 186 186 191 197 202 203 209 208 196 211 217 223 221 215 227 228 213 177 171 151 147 159 141 145
107 93 103 109 143 149 197 260 234 227 229 226 226 208 191 184 186 181 172 167 163 156 157 161 172 172 170 187 197 194 193 194 189 194 219 223 223 212 207 204 194 171 146 132 137 150 145 143 125
145 152 143 143 179 160 161 255 276 232 230 218 222 200 174 169 169 160 151 144 146 149 152 159 166 171 179 181 182 184 178 168 176 199 219 207 204 192 184 175 168 157 142 133 141 159 165 168 170